TITAN 3C TRANSTAGE R/B, 3692

Orbit data source: Space-Track

TITAN 3C TRANSTAGE R/B, 3692 is space debris in GEO originally from a launch on Sun, 09 Feb 1969 UTC launched from the Air Force Eastern Test Range (AFETR). Debris objects in space refer to the collection of defunct objects orbiting the Earth. Examples of debris include non-operational satellites, rocket bodies, and fragments generated from explosions, collisions, or faulty payload assembly.

Not visible in the next 10 days
Identifier
3692, 1969-013B
Orbit
GEO
Last TLE update
11 hours ago
Origin
Manufacturer
Martin Marietta
Mission
Spacecraft
Bus & Motor
TRANSTAGE, Unknown motor
Mass
2,028 kg wet, 2,028 kg dry
Launch date (UTC)
1969-02-09 (56 years ago)
Launch vehicle
Unknown
Launch site
Air Force Eastern Test Range (AFETR)
Object type
Payload
Rocket body
Debris
Shape & HBR
Cyl + 2 Nozzle, 4.6 m
Radar Cross Section
14.974 m², Large (>1 m²)

Expand to show TLE details & history

TLE from 11 hours ago
0 TITAN 3C TRANSTAGE R/B
1 03692U 69013B   25181.93169793 -.00000174  00000-0  00000-0 0  9996
2 03692   0.3957  67.4199 0169390  42.3540 163.1705  0.97536269 38896
Epoch: 2025-06-30T22:21Z
TLE epoch observation values (Epoch: 2025-06-30T22:21:38.701Z)
Latitude
-0.19277°
Longitude
18.86248°
Altitude
37,271.42 km
Speed
2.997 km/s
True Right ascension
18h 14m 01s
True Declination
0° 11' 33"
Sunlit
Object was in daylight at epoch
Visualization orbit readout
Latitude
0.0898°
Longitude
-176.53216°
Altitude
35,945.175 km
Speed
3.091 km/s
Apparent Right ascension
05h 34m 39s
Apparent Declination
-5° 06' 23"
Sunlit
Object is in daylight
Visualization observer readout
Local Sidereal Time
21:21:24
Azimuth
71.24° E
Elevation
-28.467°
Doppler factor
1
Orbital elements
Apogee altitude
37,299.918 km
Perigee altitude
35,844.84 km
Semi-major axis
42,950.516 km
Eccentricity
0.01694
Inclination
0.3957°
RAAN
67.4199°
Arg. of periapsis
42.354°
True anomaly
Unknown
Mean anomaly
163.1705°
Eccentric anomaly
Unknown
Mean motion
0.24383 °/min
Orbital period
1,476.43 mins
BSTAR
0
Loading historical data...
3692 neighbors
Loading maneuver chart data...
Loading SW <> Apogee altitude chart data...

TITAN 3C TRANSTAGE R/B Visibility

Observer location: undefined°, undefined°

TITAN 3C TRANSTAGE R/B is likely not visible in the next few days
Span
Click to sort rows by Start time (UTC) header in descending order
Start Az.
Max El. time (UTC)
Max El. Az.
Max El.
End time (UTC)
End Az.
|